Location: Gombori
(14.9797°N, 2.9419°W)
Time: 23:07:00
(UTC+00:00)

Cosmos 2298 Rocket - Pass Details

Date: 29 July 2021
Orbit: 776 x 783 km, 74.0° (Epoch: 20 September)

Event Time Altitude Azimuth Distance (km) Brightness Sun altitude
Rises 19:33:24 0° 352° (N) 3,261 7.7 -12.3°
Reaches altitude 10° 19:35:49 10° 356° (N) 2,332 6.9 -12.8°
Maximum altitude 19:41:03 61° 76° (ENE) 884 4.1 -14.0°
Enters shadow 19:45:33 14° 154° (SSE) 2,059 5.8 -15.0°
